Regional Weather Roundup
Issued by NWS Upton, NY

Current Version | Previous Version | Text Only | Print | Product List | Glossary On
Versions: 1 2 3 4 5 6 7 8 9 10 11 12 13 14 15 16 17 18 19 20 21 22 23 24 25 26 27 28 29 30 31 32 33 34 35 36 37 38 39 40 41 42 43 44 45 46 47 48 49 50
000 ASUS41 KOKX 301305 RWROKX REGIONAL WEATHER ROUNDUP NATIONAL WEATHER SERVICE NEW YORK NY 800 AM EST FRI JAN 30 2015 NOTE: "FAIR" INDICATES FEW OR NO CLOUDS BELOW 12,000 FEET WITH NO SIGNIFICANT WEATHER AND/OR OBSTRUCTIONS TO VISIBILITY. NYZ071-072-176-178-NJZ106-104-301400- NEW YORK CITY METRO AREA CITY SKY/WX TMP DP RH WIND PRES REMARKS CENTRAL PARK CLOUDY 32 25 75 W7 29.86R WCI 26 LAGUARDIA APRT LGT SNOW 32 26 78 NW7 29.84S WCI 26 KENNEDY INTL FLURRIES 34 26 72 W7 29.86F WCI 28 NEWARK/LIBERTY LGT SNOW 31 27 85 W7 29.87R FOG WCI 24 BRNX BOT. GARD N/A N/A N/A N/A W10 29.86F TETERBORO LGT SNOW 31 25 78 W3 29.85R FOG $$ NYZ177-179-078>081-301400- LONG ISLAND NEW YORK CITY SKY/WX TMP DP RH WIND PRES REMARKS FARMINGDALE LGT SNOW 34 29 82 W6 29.84S WCI 29 ISLIP LGT SNOW 34 30 85 W6 29.82S FOG WCI 29 SHIRLEY LGT SNOW 33 31 92 W3 29.84S FOG WESTHAMPTON LGT SNOW 33 31 92 NW3 29.84F FOG MONTAUK POINT N/A 35 33 92 CALM 29.83F $$ NYZ052-065-067-301400- HUDSON VALLEY CITY SKY/WX TMP DP RH WIND PRES REMARKS WHITE PLAINS LGT SNOW 30 26 85 W8 29.81S FOG WCI 22 NEWBURGH LGT SNOW 27 25 93 W9 29.84R FOG WCI 17 MONTGOMERY LGT SNOW 26 24 92 SW5 29.83S FOG WCI 20 POUGHKEEPSIE LGT SNOW 29 26 89 CALM 29.84F FOG ALBANY LGT SNOW 28 24 85 S5 29.84S FOG WCI 23 $$ NJZ001-105-106-008-010-013-015-019>022-104-301400- NEW JERSEY CITY SKY/WX TMP DP RH WIND PRES REMARKS NEWARK/LIBERTY LGT SNOW 31 27 85 W7 29.87R FOG WCI 24 TETERBORO LGT SNOW 31 25 78 W3 29.85R FOG CALDWELL CLOUDY 29 27 92 CALM 29.86R FOG MORRISTOWN FLURRIES 28 27 93 NW8 29.86R WCI 20 SOMERVILLE LGT SNOW 30 25 81 W3 29.86R SUSSEX LGT SNOW 26 23 88 SW3 29.84S FOG ANDOVER N/A 26 24 92 CALM 29.85R TRENTON CLOUDY 31 24 75 NW8 29.88R WCI 23 MILLVILLE CLOUDY 36 25 64 NW13G22 29.91R WCI 27 ATLANTIC CITY CLOUDY 35 26 69 NW13 29.89R WCI 26 WRIGHTSTOWN CLOUDY 32 26 78 W6 29.87R WCI 26 TOMS RIVER CLOUDY 32 27 80 NW9 29.88S WCI 24 BELMAR CLOUDY 32 21 64 W12 29.87R WCI 23 $$ PAZ047>061-062-071-301400- EASTERN PENNSYLVANIA CITY SKY/WX TMP DP RH WIND PRES REMARKS PHILADELPHIA MOCLDY 35 25 66 NW12 29.92R WCI 27 ALLENTOWN CLOUDY 31 24 75 W8 29.89R WCI 23 SCRANTON HVY SNOW 27 24 89 SW6 29.86S VSB 1/4 WCI 20 $$ CTZ002-004>006-009-010-012-RIZ004-006-007-MAZ004-011-015-301400- SOUTHERN NEW ENGLAND IN CT CITY SKY/WX TMP DP RH WIND PRES REMARKS BRADLEY INTL LGT SNOW 29 26 89 CALM 29.81F FOG HARTFORD CLOUDY 31 29 92 SW5 29.83F FOG WCI 26 DANBURY FLURRIES 30 24 78 W5 29.83S WCI 25 WTRBRY/OXFORD LGT SNOW 30 23 74 CALM 29.81S FOG BRIDGEPORT LGT SNOW 32 31 96 SW5 29.84R FOG WCI 27 MERIDEN LGT SNOW 30 29 96 CALM 29.83S VSB 1 NEW HAVEN LGT SNOW 32 30 92 CALM 29.83S FOG CHESTER LGT SNOW 32 32 100 W3 29.82R GROTON LGT SNOW 32 32 100 CALM 29.83F FOG WILLIMANTIC LGT SNOW 30 27 88 CALM 29.82F VSB 1 IN RI CITY SKY/WX TMP DP RH WIND PRES REMARKS PROVIDENCE CLOUDY 32 30 92 CALM 29.83F FOG BLOCK ISLAND CLOUDY 37 30 75 SW6 29.81F WCI 33 WESTERLY MIX PCPN 33 32 96 CALM 29.83F FOG IN MA CITY SKY/WX TMP DP RH WIND PRES REMARKS BOSTON CLOUDY 32 29 88 S5 29.84F WCI 27 WORCESTER LGT SNOW 27 27 100 SW3 29.77F VSB 1 WESTFIELD LGT SNOW 28 25 88 CALM 29.81F FOG PROVINCETOWN CLOUDY 37 32 81 SE8 29.84F WCI 31 NANTUCKET LGT RAIN 38 35 89 SE9 29.84F FOG WCI 31 $$ ANZ330-335-338-340-345-350-353-355-301400- COASTAL MARINE OBSERVATIONS STATION/POSITION TIME SKY/WX TEMP WIND PRES VSBY WAVE AIR SEA DIR/SP/G HT/PER (UTC) (F) (DEG/KT/KT) (MB) (MI) (FT/S) NY HARB ENTRANCE 1300 32 39 280/ 14/ 16 1010.5 3/ 6 4S FIRE IS 1300 37 N/A 4/ 5 20S FIRE ISLAND 1200 42 1010.8 4/ 6 23SW MTP 1300 N/A 4/ 6 HUDSON CANYON NOT AVBL EXECUTION ROCKS 1300 33 33 250/ 8/ 12 N/A WESTERN LI SOUND 1300 33 270/ 10/ 12 N/A 0 CENTRAL LI SOUND 1200 33 35 CALM / 2 N/A 0 EASTERN LI SOUND NOT AVBL ROBBINS REEF 1300 32 280/ 9/ 10 1009.7 $$ >>>>>>>>>>>>>>>>>>>>>>>>>>>> KEY <<<<<<<<<<<<<<<<<<<<<<<<<<< > < > SKY/WX - SKY CONDITION/PRESENT WEATHER < > TMP - TEMPERATURE IN FAHRENHEIT < > DP - DEWPOINT IN FAHRENHEIT < > RH - RELATIVE HUMIDITY IN PERCENT < > WIND - DIRECTION AND SPEED IN MPH < > PRES - MEAN SEA LEVEL PRESSURE IN INCHES OF HG < > WCI - WIND CHILL INDEX < > VSB - VISIBILITY IN MILES < > HX - HEAT INDEX < > TC - TEMPERATURE IN CELSIUS < > VRB - VARIABLE WIND DIRECTION < > < >>>>>>>>>>>>>>>>>>>>>>>>>>>> KEY <<<<<<<<<<<<<<<<<<<<<<<<<<<

USA.gov is the U.S. government's official web portal to all federal, state and local government web resources and services.